Wetterdaten: aktuell Sonntag, 28.11.2021 04:05
Datum Zeit Temp. A. Temp. A. min Feuchte A. Luftdruck Regen Wind Richtung Richtung Sonnenschein Solar Taupunkt Windchill Windben
28.11.2021 04:05 0,8 C 0,8 C 95 % 995,7 hPa 0,0 l/m 0,0 km/h (0 Bft) W 266 0 min 0 W/m 0,1 C 0,8 C 0,0 km/h (0 Bft)
28.11.2021 04:00 0,8 C 0,8 C 95 % 995,7 hPa 0,0 l/m 0,0 km/h (0 Bft) W 266 0 min 0 W/m 0,1 C 0,8 C 0,0 km/h (0 Bft)
28.11.2021 03:55 0,8 C 0,8 C 95 % 995,8 hPa 0,0 l/m 0,0 km/h (0 Bft) W 266 0 min 0 W/m 0,1 C 0,8 C 0,0 km/h (0 Bft)
28.11.2021 03:50 0,8 C 0,8 C 95 % 995,8 hPa 0,0 l/m 0,0 km/h (0 Bft) W 266 0 min 0 W/m 0,1 C 0,8 C 0,0 km/h (0 Bft)
28.11.2021 03:45 0,8 C 0,8 C 95 % 995,8 hPa 0,0 l/m 0,0 km/h (0 Bft) W 266 0 min 0 W/m 0,1 C 0,8 C 0,0 km/h (0 Bft)
28.11.2021 03:40 0,8 C 0,8 C 95 % 995,9 hPa 0,0 l/m 0,0 km/h (0 Bft) W 266 0 min 0 W/m 0,1 C 0,8 C 0,0 km/h (0 Bft)
28.11.2021 03:35 0,8 C 0,8 C 95 % 995,8 hPa 0,0 l/m 0,0 km/h (0 Bft) W 266 0 min 0 W/m 0,1 C 0,8 C 0,0 km/h (0 Bft)
28.11.2021 03:30 0,8 C 0,8 C 95 % 995,9 hPa 0,0 l/m 0,0 km/h (0 Bft) W 266 0 min 0 W/m 0,1 C 0,8 C 0,0 km/h (0 Bft)
28.11.2021 03:25 0,8 C 0,8 C 95 % 995,9 hPa 0,0 l/m 0,0 km/h (0 Bft) W 266 0 min 0 W/m 0,1 C 0,8 C 0,0 km/h (0 Bft)
28.11.2021 03:20 0,8 C 0,7 C 95 % 995,9 hPa 0,0 l/m 0,4 km/h (0 Bft) W 266 0 min 0 W/m 0,1 C 0,8 C 3,2 km/h (1 Bft)
28.11.2021 03:15 0,7 C 0,7 C 95 % 995,9 hPa 0,0 l/m 0,0 km/h (0 Bft) W 265 0 min 0 W/m -0,0 C 0,7 C 1,6 km/h (1 Bft)
28.11.2021 03:10 0,7 C 0,7 C 95 % 995,9 hPa 0,0 l/m 0,0 km/h (0 Bft) W 265 0 min 0 W/m -0,0 C 0,7 C 0,0 km/h (0 Bft)
28.11.2021 03:05 0,7 C 0,7 C 95 % 995,9 hPa 0,0 l/m 0,0 km/h (0 Bft) W 265 0 min 0 W/m -0,0 C 0,7 C 0,0 km/h (0 Bft)
28.11.2021 03:00 0,7 C 0,7 C 95 % 995,9 hPa 0,0 l/m 0,0 km/h (0 Bft) W 265 0 min 0 W/m -0,0 C 0,7 C 0,0 km/h (0 Bft)
28.11.2021 02:55 0,7 C 0,7 C 95 % 995,9 hPa 0,0 l/m 0,0 km/h (0 Bft) W 265 0 min 0 W/m -0,0 C 0,7 C 0,0 km/h (0 Bft)
28.11.2021 02:50 0,7 C 0,7 C 95 % 995,8 hPa 0,0 l/m 0,0 km/h (0 Bft) W 265 0 min 0 W/m -0,0 C 0,7 C 0,0 km/h (0 Bft)
28.11.2021 02:45 0,7 C 0,7 C 95 % 995,8 hPa 0,0 l/m 0,0 km/h (0 Bft) W 265 0 min 0 W/m -0,0 C 0,7 C 0,0 km/h (0 Bft)
28.11.2021 02:40 0,7 C 0,7 C 95 % 995,7 hPa 0,0 l/m 0,0 km/h (0 Bft) W 265 0 min 0 W/m -0,0 C 0,7 C 0,0 km/h (0 Bft)
28.11.2021 02:35 0,7 C 0,7 C 95 % 995,7 hPa 0,0 l/m 0,0 km/h (0 Bft) W 265 0 min 0 W/m -0,0 C 0,7 C 0,0 km/h (0 Bft)
28.11.2021 02:30 0,7 C 0,7 C 95 % 995,6 hPa 0,0 l/m 0,1 km/h (0 Bft) W 265 0 min 0 W/m -0,0 C 0,7 C 1,6 km/h (1 Bft)
28.11.2021 02:25 0,7 C 0,7 C 95 % 995,5 hPa 0,0 l/m 0,0 km/h (0 Bft) W 265 0 min 0 W/m -0,0 C 0,7 C 0,0 km/h (0 Bft)
28.11.2021 02:20 0,7 C 0,7 C 95 % 995,5 hPa 0,0 l/m 0,0 km/h (0 Bft) W 265 0 min 0 W/m -0,0 C 0,7 C 0,0 km/h (0 Bft)
28.11.2021 02:15 0,7 C 0,7 C 95 % 995,5 hPa 0,0 l/m 0,0 km/h (0 Bft) W 265 0 min 0 W/m -0,0 C 0,7 C 0,0 km/h (0 Bft)
28.11.2021 02:10 0,7 C 0,7 C 95 % 995,5 hPa 0,0 l/m 0,0 km/h (0 Bft) W 265 0 min 0 W/m -0,0 C 0,7 C 0,0 km/h (0 Bft)
28.11.2021 02:05 0,7 C 0,7 C 95 % 995,5 hPa 0,0 l/m 0,0 km/h (0 Bft) W 265 0 min 0 W/m -0,0 C 0,7 C 0,0 km/h (0 Bft)
28.11.2021 02:00 0,7 C 0,7 C 95 % 995,4 hPa 0,0 l/m 0,0 km/h (0 Bft) W 265 0 min 0 W/m -0,0 C 0,7 C 0,0 km/h (0 Bft)
28.11.2021 01:55 0,7 C 0,7 C 95 % 995,4 hPa 0,0 l/m 0,0 km/h (0 Bft) W 265 0 min 0 W/m -0,0 C 0,7 C 0,0 km/h (0 Bft)
28.11.2021 01:50 0,7 C 0,7 C 95 % 995,4 hPa 0,0 l/m 0,0 km/h (0 Bft) W 265 0 min 0 W/m -0,0 C 0,7 C 0,0 km/h (0 Bft)
28.11.2021 01:45 0,7 C 0,7 C 95 % 995,4 hPa 0,0 l/m 0,1 km/h (0 Bft) W 264 0 min 0 W/m -0,0 C 0,7 C 1,6 km/h (1 Bft)
28.11.2021 01:40 0,7 C 0,7 C 95 % 995,4 hPa 0,0 l/m 0,6 km/h (0 Bft) W 265 0 min 0 W/m -0,0 C 0,7 C 3,2 km/h (1 Bft)
28.11.2021 01:35 0,7 C 0,7 C 95 % 995,3 hPa 0,0 l/m 0,1 km/h (0 Bft) W 274 0 min 0 W/m -0,0 C 0,7 C 1,6 km/h (1 Bft)
28.11.2021 01:30 0,7 C 0,7 C 95 % 995,4 hPa 0,0 l/m 0,4 km/h (0 Bft) W 274 0 min 0 W/m -0,0 C 0,7 C 3,2 km/h (1 Bft)
28.11.2021 01:25 0,7 C 0,7 C 95 % 995,4 hPa 0,0 l/m 0,2 km/h (0 Bft) W 273 0 min 0 W/m -0,0 C 0,7 C 1,6 km/h (1 Bft)
28.11.2021 01:20 0,7 C 0,7 C 95 % 995,4 hPa 0,0 l/m 0,0 km/h (0 Bft) W 273 0 min 0 W/m -0,0 C 0,7 C 1,6 km/h (1 Bft)
28.11.2021 01:15 0,7 C 0,7 C 95 % 995,4 hPa 0,0 l/m 0,0 km/h (0 Bft) W 273 0 min 0 W/m -0,0 C 0,7 C 0,0 km/h (0 Bft)
28.11.2021 01:10 0,7 C 0,7 C 95 % 995,4 hPa 0,0 l/m 0,0 km/h (0 Bft) W 273 0 min 0 W/m -0,0 C 0,7 C 0,0 km/h (0 Bft)
28.11.2021 01:05 0,7 C 0,7 C 95 % 995,5 hPa 0,0 l/m 0,0 km/h (0 Bft) W 273 0 min 0 W/m -0,0 C 0,7 C 0,0 km/h (0 Bft)
28.11.2021 01:00 0,7 C 0,7 C 95 % 995,5 hPa 0,0 l/m 0,0 km/h (0 Bft) W 273 0 min 0 W/m -0,0 C 0,7 C 0,0 km/h (0 Bft)
28.11.2021 00:55 0,7 C 0,7 C 95 % 995,5 hPa 0,0 l/m 0,0 km/h (0 Bft) W 273 0 min 0 W/m -0,0 C 0,7 C 0,0 km/h (0 Bft)
28.11.2021 00:50 0,7 C 0,6 C 95 % 995,6 hPa 0,0 l/m 0,0 km/h (0 Bft) W 273 0 min 0 W/m -0,0 C 0,7 C 0,0 km/h (0 Bft)
28.11.2021 00:45 0,6 C 0,6 C 95 % 995,6 hPa 0,0 l/m 0,1 km/h (0 Bft) W 273 0 min 0 W/m -0,1 C 0,6 C 1,6 km/h (1 Bft)
28.11.2021 00:40 0,6 C 0,5 C 95 % 995,6 hPa 0,0 l/m 0,2 km/h (0 Bft) W 274 0 min 0 W/m -0,1 C 0,6 C 3,2 km/h (1 Bft)
28.11.2021 00:35 0,5 C 0,4 C 95 % 995,7 hPa 0,0 l/m 0,0 km/h (0 Bft) W 268 0 min 0 W/m -0,2 C 0,5 C 0,0 km/h (0 Bft)
28.11.2021 00:30 0,4 C 0,4 C 95 % 995,7 hPa 0,0 l/m 0,0 km/h (0 Bft) W 267 0 min 0 W/m -0,3 C 0,4 C 0,0 km/h (0 Bft)
28.11.2021 00:25 0,4 C 0,3 C 95 % 995,7 hPa 0,0 l/m 0,4 km/h (0 Bft) W 269 0 min 0 W/m -0,3 C 0,4 C 3,2 km/h (1 Bft)
28.11.2021 00:20 0,3 C 0,3 C 95 % 995,7 hPa 0,0 l/m 0,5 km/h (0 Bft) N 10 0 min 0 W/m -0,4 C 0,3 C 3,2 km/h (1 Bft)
28.11.2021 00:15 0,3 C 0,2 C 95 % 995,7 hPa 0,0 l/m 0,0 km/h (0 Bft) S-SO 163 0 min 0 W/m -0,4 C 0,3 C 0,0 km/h (0 Bft)
28.11.2021 00:10 0,2 C 0,2 C 95 % 995,7 hPa 0,0 l/m 0,5 km/h (0 Bft) S-SO 163 0 min 0 W/m -0,5 C 0,2 C 6,4 km/h (2 Bft)
28.11.2021 00:05 0,2 C 0,1 C 95 % 995,8 hPa 0,0 l/m 0,6 km/h (0 Bft) O 88 0 min 0 W/m -0,5 C 0,2 C 3,2 km/h (1 Bft)
28.11.2021 00:00 0,1 C 0,1 C 95 % 995,9 hPa 0,0 l/m 0,0 km/h (0 Bft) W-NW 296 0 min 0 W/m -0,6 C 0,1 C 0,0 km/h (0 Bft)
_ Min-Zeit 00:00 00:00 00:00 01:35 - 00:00 - - - - 00:00 00:00 00:00
Minimum _ 0,1 C 0,1 C 95 % 995,3 hPa - 0,0 km/h (0 Bft) - - - - -0,6 C 0,1 C 0,0 km/h (0 Bft)
_ Max-Zeit 03:05 03:25 00:00 00:00 00:00 00:05 - - 00:00 00:00 03:20 03:20 00:10
Maximum _ 0,8 C 0,8 C 95 % 995,9 hPa 0,0 l/m 0,6 km/h
O (0 Bft)
- - 0 min 0 W/m 0,1 C 0,8 C 6,4 km/h
O-SO (2 Bft)
Durchschnitt _ 0,7 C 0,6 C 95 % 995,6 hPa #0,0 l/m 0,1 km/h (0 Bft) N - #0 min. 0 W/m -0,1 C 0,7 C 0,8 km/h (0 Bft)